This is the latest recevied weather packets stored in our database for station/object KC9NPJ-13. If no packets are shown the sender has not sent any weather packets the latest 10 day(s).
| Time | Temp. | Humidity | Pressure | Rain* | Wind** | Luminosity | Snow |
|---|---|---|---|---|---|---|---|
| 1777489466 | 17.22° C | 66% | 1016.3 hPa | 0 mm | - | - | - |
| 1777489167 | 17.22° C | 65% | 1016.2 hPa | 0 mm | - | - | - |
| 1777488867 | 17.22° C | 63% | 1016.2 hPa | 0 mm | - | - | - |
| 1777488567 | 17.22° C | 62% | 1016.2 hPa | 0 mm | - | - | - |
| 1777488267 | 17.78° C | 64% | 1016.1 hPa | 0 mm | - | - | - |
| 1777487967 | 17.78° C | 63% | 1016.2 hPa | 0 mm | - | - | - |
| 1777487667 | 17.78° C | 67% | 1016.3 hPa | 0 mm | - | - | - |
| 1777487367 | 17.78° C | 67% | 1016.3 hPa | 0 mm | - | - | - |
| 1777487067 | 17.22° C | 60% | 1016.2 hPa | 0 mm | - | - | - |
| 1777486767 | 17.78° C | 69% | 1016.2 hPa | 0 mm | - | - | - |
| 1777486467 | 17.22° C | 68% | 1016.2 hPa | 0 mm | - | - | - |
| 1777486167 | 17.78° C | 70% | 1016.2 hPa | 0 mm | - | - | - |
| 1777485867 | 17.22° C | 71% | 1016.2 hPa | 0 mm | - | - | - |
| 1777485567 | 17.22° C | 65% | 1016.3 hPa | 0 mm | - | - | - |
| 1777485267 | 17.22° C | 64% | 1016.4 hPa | 0 mm | - | - | - |
| 1777484967 | 17.22° C | 70% | 1016.4 hPa | 0 mm | - | - | - |
| 1777484667 | 17.22° C | 69% | 1016.5 hPa | 0 mm | - | - | - |
| 1777484367 | 16.67° C | 67% | 1016.6 hPa | 0 mm | - | - | - |
| 1777484067 | 17.22° C | 65% | 1016.4 hPa | 0 mm | - | - | - |
| 1777483767 | 17.22° C | 70% | 1016.3 hPa | 0 mm | - | - | - |
| 1777483467 | 17.22° C | 68% | 1016.4 hPa | 0 mm | - | - | - |
| 1777483167 | 17.22° C | 65% | 1016.4 hPa | 0 mm | - | - | - |
| 1777482867 | 17.22° C | 70% | 1016.4 hPa | 0 mm | - | - | - |
| 1777482567 | 17.22° C | 67% | 1016.4 hPa | 0 mm | - | - | - |
| 1777482267 | 17.22° C | 70% | 1016.3 hPa | 0 mm | - | - | - |
* Rain latest hour (hover to see other rain measurements)
** Current wind speed in m/s (hover to see current wind gust speed)